Current Version              Previous Version:    01  02  03  04  05  06  07  08  09  10  11  12  13  14  15  16  17  18  19  20  21  22  23  24  25  26  27  28  29  30  
   31  32  33  34  35  36  37  38  39  40  41  42  43  44  45  46  47  48  49  50  51  52  53  54  55  56  57  58  59  60  

[Printable]
615
ASUS44 KFWD 301403
RWRTX
NORTH TEXAS HOURLY WEATHER ROUNDUP
NATIONAL WEATHER SERVICE FORT WORTH TX
900 AM CDT WED JUL 30 2014

NOTE: "FAIR" INDICATES FEW OR NO CLOUDS BELOW 12,000 FEET WITH NO
SIGNIFICANT WEATHER AND/OR OBSTRUCTIONS TO VISIBILITY.

TXZ118-119-301500-
DALLAS/FORT WORTH METROPLEX

CITY           SKY/WX    TMP DP  RH WIND       PRES   REMARKS
DFW AIRPORT    HVY RAIN  75  72  90 E7        30.07S FOG
DALLAS LOVE    CLOUDY    76  71  85 E9        30.08S HAZE
FTW MEACHAM    LGT RAIN  76  71  85 SE9       30.05S
DAL-EXECUTIVE  LGT RAIN  76  71  85 E8        30.08R
FTW-ALLIANCE   LGT RAIN  72  70  93 E8        30.06S
FTW-NAS-JRB    CLOUDY    79  68  69 E10       30.09S
FTW-SPINKS     CLOUDY    75  72  88 E5        30.08R
ARLINGTON      CLOUDY    77  71  82 E8        30.08R
GRAND PRAIRIE  LGT RAIN  75  70  83 NE3       30.10R
ADDISON        LGT RAIN  75  70  83 E9        30.09F
MESQUITE       RAIN      73  72  94 VRB3      30.10R
LANCASTER      RAIN      75  70  83 NE3       30.10R
$$

TXZ091>094-102>105-117-120-121-131>134-301500-
NORTH CENTRAL TEXAS

CITY           SKY/WX    TMP DP  RH WIND       PRES   REMARKS
SHRMAN/DENISON LGT RAIN  72  68  89 SE7       30.10S
GAINESVILLE    LGT RAIN  70  69  96 E8        30.10S
BOWIE          RAIN      69  69  97 CALM      30.07S
BRIDGEPORT     CLOUDY    72  68  89 SE8       30.07S
DECATUR        CLOUDY    70  69  96 E8        30.07S
DENTON         LGT RAIN  73  70  90 E9        30.07S
MCKINNEY       LGT RAIN  72  70  93 E3        30.09S
GREENVILLE     CLOUDY    75  64  69 SE5       30.11R
ROCKWALL       RAIN      74  69  83 CALM      30.09S
TERRELL        CLOUDY    78  68  71 NE3       30.10R
WAXAHACHIE     RAIN      75  69  81 CALM      30.10R
CLEBURNE       CLOUDY    77  72  83 SE7       30.08R
GRANBURY       CLOUDY    78  69  74 SE7       30.06R
$$

TXZ083>090-098>101-113>116-127>130-139>142-154-155-301500-
WESTERN NORTH TEXAS

CITY           SKY/WX    TMP DP  RH WIND       PRES   REMARKS
WICHITA FALLS  CLOUDY    70  67  90 SE15      30.03F
WF-KICKAPOO    LGT RAIN  70  68  94 SE14      30.04F
VERNON         CLOUDY    69  66  90 E7        30.06R
ABILENE        CLOUDY    77  64  64 S15       30.03F
ABILENE-DYESS  CLOUDY    76  65  68 S16       30.01F
BRECKENRIDGE   CLOUDY    82  64  56 S13       30.03R HAZE
GRAHAM         CLOUDY    76  66  71 E5        30.03R
MINERAL WELLS  CLOUDY    77  69  76 SE10      30.03S
STEPHENVILLE   CLOUDY    78  66  68 S9        30.08S
COMANCHE       CLOUDY    79  62  56 S5        30.06R
BROWNWOOD      CLOUDY    77  64  65 S8        30.05S
COLEMAN        CLOUDY    77  59  53 S7        30.06S
BRADY          SUNNY     79  57  47 S9        30.06S
$$

TXZ143>147-156>162-174-175-301500-
CENTRAL TEXAS

CITY           SKY/WX    TMP DP  RH WIND       PRES   REMARKS
WACO           CLOUDY    79  70  74 S9        30.05R
WACO-TSTC      MOSUNNY   79  72  78 S8        30.05R
WACO-MCGREGOR  CLOUDY    79  68  69 S9        30.07R
HILLSBORO      CLOUDY    79  69  72 SE6       30.07R
CORSICANA      MOSUNNY   79  70  74 SE7       30.08R
MEXIA          MOSUNNY   76  73  90 SE6       30.06R
HEARNE         SUNNY    N/A N/A N/A SE6       30.06S
CAMERON        PTSUNNY   79  74  85 S6        30.06S
TEMPLE         PTSUNNY   75  68  78 S13       30.06R
KILLEEN        PTSUNNY   75  72  88 SE8       30.06R
KILLEEN-SKYLRK PTSUNNY   77  66  69 S7        30.06R
FORT HOOD      PTSUNNY   78  71  79 SE6       30.06R
GATESVILLE     PTSUNNY   79  68  69 S6        30.08R HAZE
HAMILTON       CLOUDY    78  67  68 S12G18    30.06F
LAMPASAS       MOSUNNY   76  72  87 S3        30.06R
$$

TXZ095>097-106>112-122>126-135>138-148>153-164>167-301500-
EAST TEXAS

CITY           SKY/WX    TMP DP  RH WIND       PRES   REMARKS
PARIS          CLOUDY    73  64  73 S5        30.12R
SULPHUR SPRNGS CLOUDY    75  66  74 S9        30.12R
CLARKSVILLE    CLOUDY    74  65  74 CALM      30.11S
MOUNT PLEASANT CLOUDY    73  65  76 SE3       30.12R
GILMER         PTSUNNY   75  66  73 S5        30.12S
MINEOLA        CLOUDY    73  70  88 CALM      30.10S
TYLER          CLOUDY    76  66  71 S8        30.09R
LONGVIEW       CLOUDY    76  65  68 SE6       30.10R
MARSHALL       CLOUDY    75  67  75 CALM      30.13R
ATHENS         CLOUDY    73  68  83 S6        30.07S
JACKSONVILLE   CLOUDY    76  69  77 SE5       30.12R
HENDERSON      MOSUNNY   75  66  74 SE5       30.11S
NACOGDOCHES    MOSUNNY   75  66  73 SE9       30.10R
LUFKIN         MOSUNNY   78  69  73 SE8       30.09R
$$

SUPPLEMENTAL OBSERVATIONS (CENTRAL)

CITY           SKY/WX    TMP DP  RH WIND       PRES   REMARKS
$$

SUPPLEMENTAL OBSERVATIONS (WEST)

CITY           SKY/WX    TMP DP  RH WIND       PRES   REMARKS
$$

SUPPLEMENTAL OBSERVATIONS (EAST)

CITY           SKY/WX    TMP DP  RH WIND       PRES   REMARKS
$$

SUPPLEMENTAL OBSERVATIONS ARE A COLLECTION OF AUTOMATED INSTRUMENTS
THAT ARE MAINTAINED BY A VARIETY OF FEDERAL AND STATE AGENCIES.
CERTAIN ELEMENTS...SUCH AS HUMIDITY VALUES AND SUSTAINED WIND
SPEEDS...MAY BE APPROXIMATED.